Погода в Уральске

Погода в Уральске : погода сейчас, прогноз погоды и архив. Всё, что Вы хотите узнать о погоде в Уральске!

Хотите узнать прогноз погоды в Уральске? Тогда Вам сюда: Погода в Уральске

Поиск расширенной информации на нашем сайте:

Другие новости

Новости СМИ2

Главная страница сайта

Новости сайта

02.10.2013

Напоминаем, что на нашем новом сайте вы можете получить высокодетализированные прогнозы погоды по пунктам России, СНГ и мира (включающие важные для авиации метеовеличины, такие как направление и скорость ветра, видимость, явления погоды, количество и форма облачности, нижняя и верхняя граница облачности), а также ознакомиться с разнообразными материалами по авиационной метеорологии и подборкой полезных ссылок на эту тему.

Сайт Метеоцентр.Азия посвящён разработке технологий оптимизации авиаметеорологического обслуживания, включая проектирование и перспективное создание нескольких автоматизированных авиаметеорологических систем:
- система выпуска высокодетальных прогностических карт явлений погоды для нижнего воздушного пространства по России и ближнему зарубежью;
- система верификации прогнозов TAF (выпускаемых синоптиками официальных АМСГ РФ и ближнего зарубежья) и AUTOTAF (выпускаемых сайтом Метеоцентр.Азия) - выявление ошибок, онлайн-сопоставление с фактической погодой METAR, автоматическое внесение коррективов в прогнозы при резком отклонении фактической погоды от прогноза, подсчёт оправдываемости прогнозов по элементам и в целом;
- система обработки, анализа и отображения авиаметеорологической информации для применения провайдерами метеорологической информации.

Рекомендуем: Дженерал экспресс курьерская служба доставки.

Погода в Уральске - сегодня

Время (UTC), дата Ветер
(°,м/с) 
Видим.   Явления Облачность Т
(°С)
Тd
(°С)
f(%) Тe
(°С)
Pmin
(гПа)
dP
(гПа)
Po
(мм)
O2
(г/м3)
Тmin Tmax R s Состояние
почвы
15 21.06.17 140 (ЮВ) 10 км    3/3 1000 м 
[Cu hum]
+27.8 +11 35 +30  1002.4  -1.3  749  272    +28.5       
18 21.06.17 140 (ЮВ) н/о    3/0 средняя 
[Ac und]
+22 +12.1 53 +26  1002.8  0.3  749  277    +28.5       
21 21.06.17 140 (ЮВ) н/о    8/0 средняя 
[Ac und]
+20.2 +9.8 51 +21  1002.2  -0.6  749  279           
00 22.06.17 230 (ЮЗ) н/о    8/8 1000 м кучево-дожд., средняя 
[Cb cap|Ac As]
+17 +9.6 62 +18  1002.8  0.5  749  282           
03 22.06.17 230 (ЮЗ) 10 км  {ливн. осадки}  10/10 600 м кучево-дожд. 
[Cb cap]
+18.1 +14.9 82 +27  1003.3  0.6  749  280      0.0     
06 22.06.17 180 (Ю) 10 км    10/5 1000 м средняя, верхняя 
[Sc diur, vesp|Ac As|Ci fib]
+20.6 +15.9 74 +31  1002.8  -0.5  749  277  +16.4    0.0     
09 22.06.17 230 (ЮЗ) 10 км    10/6 1000 м кучево-дожд., средняя, верхняя 
[Cb cap|Ac trans|Ci fib]
+25.7 +16.5 57 +37  1002.6  -0.1  749  272           
12 22.06.17 250 (З) 10 км    8/8 1000 м 
[Cu med, cong]
+26.7 +15 49 +35  1002.2  -0.4  749  272           
15 22.06.17 350 (С) 10 км    6/6 1000 м верхняя 
[Cu med, cong|Ci fib]
+25 +10.5 40 +27  1003.4  1.1  749  275    +27.4       
18 22.06.17 тихо ()   н/о    8/8 1000 м кучево-дожд. 
[Cb calv]
+18.9 +8.5 51 +19  1005.4  1.9  751  282    +27.4       
21 22.06.17 290 (З) н/о    3/0 средняя 
[Ac und]
+14.7 +7.9 64 +16  1006.3  0.9  752  286           
00 23.06.17 тихо ()   н/о    3/0 средняя 
[Ac lent]
+11.6 +7.7 77 +12  1007.6  1.7  752  290           
03 23.06.17 290 (З) 10 км    3/0 верхняя 
[Ci fib]
+14.1 +8.3 68 +15  1008.9  1.4  753  287           
06 23.06.17 340 (С) 10 км    3/3 1000 м 
[Cu med, cong]
+20.1 +6.9 42 +20  1009.7  0.8  754  282  +10         
09 23.06.17 290 (З) 10 км    8/6 1000 м верхняя 
[Cu med, cong|Ci]
+22.3 +6.7 36 +22  1010  0.4  754  280           
12 23.06.17 320 (СЗ) 10 км    8/4 1000 м верхняя 
[Cu hum|Ci fib]
+23.2 +4.6 30 +23  1009.6  -0.4  754  279           
15 23.06.17 270 (З) 10 км    6/3 1000 м верхняя 
[Cu hum|Ci fib]
+22.9 +4.1 29 +23  1009.1  -0.5  754  280    +23.5       
18 23.06.17 тихо ()   н/о    4/0 верхняя 
[Ci fib]
+16.3 +9.4 64 +17  1009.9  0.7  754  285    +23.5       
21 23.06.17 тихо ()   н/о    3/0 средняя 
[Ac trans]
+13.6 +8.8 73 +14  1009.6  -0.3  754  288           
00 24.06.17 250 (З) н/о    6/4 600 м верхняя 
[Sc|Ci fib]
+12.6 +6 64 +14  1009  -0.7  753  289           
03 24.06.17 180 (Ю) 10 км    8/4 1000 м средняя, верхняя 
[Cu med, cong|Ac trans|Ci fib]
+16.1 +7.7 57 +16  1008.2  -0.7  753  285           
06 24.06.17 330 (СЗ) 10 км    8/0 верхняя 
[Cs]
+22.4 +8.7 42 +22  1006.8  -1.3  752  279  +12.5         
09 24.06.17 200 (Ю) 10 км    10/5 1000 м кучево-дожд., средняя 
[Cb calv|Ac As]
+25.8 +8.4 33 +26  1005.1  -1.7  751  275           
12 24.06.17 200 (Ю) 10 км    10/10 600 м 
[Sc]
+24.9 +10.1 39 +26  1002.6  -2.5  749  275           
15 24.06.17 210 (ЮЗ) 10 км  слаб. ливневой дождь  10/10 600 м кучево-дожд. 
[Cb calv]
+20 +14.3 70 +28  1000.8  -1.8  747  278    +26.4  0.0     
Время (UTC), дата Ветер
(°,м/с) 
Видим.   Явления Облачность Т
(°С)
Тd
(°С)
f(%) Тe
(°С)
Pmin
(гПа)
dP
(гПа)
Po
(мм)
O2
(г/м3)
Тmin Tmax R s Состояние
почвы

Для получения пояснительной информации подведите курсор к названию столбца.

ПОГОДА в Уральске - архив

Всё, что Вы хотите узнать о погоде в Уральске - удобно и подробно!

Выберите нужную дату (начиная с 1 января 2015* года) и нажмите кнопку "Найти".
Будут отображены архивные сводки погоды по пункту Уральск, начиная с указанной даты.


Отображать данные в формате CSV (для использования в таблицах Excel)


Внимание! Наш архив погоды предназначен исключительно для личного некоммерческого использования в познавательных целях. Если Вам необходимы официальные справки о состоянии погоды (для производственных, юридических, коммерческих и т.п. целей), обращайтесь в органы Росгидромета.

*Примечание: данная дата относится к архиву по метеостанциям СССР (Россия, СНГ, Балтия).
Архив по метеостанциям Зарубежной Европы и Азии (кроме Китая) хранится 10 дней, по другим регионам земного шара (Китай, Африка, Америка, Австралия, Океания) - 1 день.

Уральск - район местоположения метеостанции


Название, широта, долгота, высота метеостанции:
Уральск (город) 51.2°ш. 51.3°д. 37 м над ур. моря [Казахстан]

Дополнительная информация

В oтличие oт бoльшинства пoгoдных сайтoв мы публикуем пoдрoбную метеoинфoрмацию в детальнoм прoфессиoнальнoм фoрмате.

Характеристики температуры и влажнoсти вoздуха измеряются на высoте 2 м в тени вдали oт зданий и деревьев.
Скoрoсть ветра измеряется на высoте 10 м (на урoвне рoста челoвека скoрoсть ветра ниже в 1.5-2 раза). Если метеoстанция нахoдится в гoрoде или в лесу, тo скoрoсть ветра занижена на 2-4 м/с пo сравнению с oткрытым местoм. Скoрoсть ветра над акватoриями крупных рек и oзёр, а также на вершинах хoлмoв на 2-5 м/с выше, чем в oбычных услoвиях.
Атмoсфернoе давление в разных тoчках местнoсти мoжет значительнo oтличаться oт давления на метеoстанции, в зависимoсти oт услoвий рельефа (при пoдъёме на 10 м давление пoнижается примернo на 1 мм рт.ст.).